Fort Benning, AL

12:43 AM CDT on July 22, 2017 (GMT -0500)
Lawson Army Air Field

Weather History for KLSF - October, 2013

Change the Weather History Date:

Tuesday, October 1, 2013

  Actual Average Record
Temperature  
Mean Temperature 72 °F -  
Max Temperature 86 °F 79 °F 87 °F (1998)
Min Temperature 59 °F 57 °F 42 °F (2001)
Cooling Degree Days 6    
Growing Degree Days 22 (Base 50)    
Moisture  
Dew Point 62 °F    
Average Humidity 92    
Maximum Humidity 100    
Minimum Humidity 48    
Precipitation  
Precipitation 0.00 in - - ()
Sea Level Pressure  
Sea Level Pressure 30.09 in    
Wind  
Wind Speed 1 mph (NE)    
Max Wind Speed 6 mph    
Max Gust Speed -    
Visibility 6 miles    
Events Fog    
Averages and records for this station are not official NWS values.
T = Trace of Precipitation, MM = Missing Value Source: NWS Daily Summary

Daily Weather History Graph

Daily Weather History Graph

Search for Another Location

Airport or City:

Trip Planner

Search our weather history database for the weather conditions in past years. The results will help you decide how hot, cold, wet, or windy it might be!

Date:

Astronomy

Oct. 01, 2013 Rise Set
Actual Time 7:34 AM EDT 7:24 PM EDT
Civil Twilight 7:09 AM EDT 7:48 PM EDT
Nautical Twilight 6:41 AM EDT 8:17 PM EDT
Astronomical Twilight 6:12 AM EDT 8:45 PM EDT
Moon 4:17 AM EDT (10/1) 5:19 PM EDT (10/1)
Length of Visible Light 12h 39m
Length of Day
11h 50m
Waning Crescent, 12% of the Moon is Illuminated
Oct 1
Waning Crescent
Oct 4
New
Oct 11
First Quarter
Oct 18
Full
Oct 26
Last Quarter

Hourly Weather History & Observations

Time (EDT) Temp. Heat Index Dew Point Humidity Pressure Visibility Wind Dir Wind Speed Gust Speed Precip Events Conditions
12:03 AM 62.6 °F - 62.6 °F 100% 30.05 in 1.0 mi Calm Calm - N/A   Clear
12:08 AM 62.6 °F - 62.6 °F 100% 30.05 in 0.8 mi Calm Calm - N/A   Clear
12:13 AM 62.6 °F - 62.6 °F 100% 30.05 in 1.8 mi NNW 1.2 mph - N/A   Clear
12:18 AM 62.6 °F - 62.6 °F 100% 30.05 in 6.0 mi Calm Calm - N/A   Clear
12:23 AM 62.6 °F - 60.8 °F 94% 30.05 in 9.0 mi Calm Calm - N/A   Clear
12:58 AM 60.8 °F - 60.6 °F 99% 30.07 in 10.0 mi North 2.3 mph - N/A   Clear
1:43 AM 60.8 °F - 60.8 °F 100% 30.05 in 9.0 mi West 1.2 mph - N/A   Clear
1:48 AM 60.8 °F - 60.8 °F 100% 30.05 in 9.0 mi Calm Calm - N/A   Clear
2:08 AM 59.0 °F - 59.0 °F 100% 30.06 in 10.0 mi NNW 3.5 mph - N/A   Clear
2:33 AM 60.8 °F - 60.8 °F 100% 30.06 in 8.0 mi Calm Calm - N/A   Clear
2:38 AM 60.8 °F - 60.8 °F 100% 30.06 in 2.0 mi Calm Calm - N/A   Clear
2:48 AM 60.8 °F - 60.8 °F 100% 30.06 in 2.0 mi NNW 2.3 mph - N/A   Clear
2:53 AM 60.8 °F - 59.0 °F 94% 30.06 in 3.0 mi NNW 2.3 mph - N/A   Clear
2:58 AM 59.9 °F - 59.7 °F 99% 30.06 in 7.0 mi NNW 2.3 mph - N/A   Clear
3:43 AM 59.0 °F - 59.0 °F 100% 30.06 in 10.0 mi North 1.2 mph - N/A   Partly Cloudy
5:35 AM 60.8 °F - 60.8 °F 100% 30.07 in 3.0 mi Calm Calm - N/A   Overcast
5:55 AM 60.4 °F - 60.4 °F 100% 30.09 in 10.0 mi Calm Calm - N/A   Overcast
6:23 AM 60.8 °F - 60.8 °F 100% 30.09 in 5.0 mi Calm Calm - N/A   Mostly Cloudy
6:34 AM 59.0 °F - 59.0 °F 100% 30.10 in 4.0 mi North - - N/A   Overcast
6:43 AM 59.0 °F - 59.0 °F 100% 30.10 in 10.0 mi North 1.2 mph - N/A   Overcast
6:55 AM 60.8 °F - 60.8 °F 100% 30.11 in 3.0 mi Calm Calm - N/A   Mostly Cloudy
6:58 AM 59.9 °F - 59.9 °F 100% 30.11 in 10.0 mi NNW 2.3 mph - N/A   Overcast
7:13 AM 60.8 °F - 60.8 °F 100% 30.11 in 3.0 mi Calm Calm - N/A   Mostly Cloudy
7:18 AM 59.0 °F - 59.0 °F 100% 30.11 in 1.5 mi Calm Calm - N/A   Scattered Clouds
7:23 AM 59.0 °F - 59.0 °F 100% 30.11 in 0.8 mi Calm Calm - N/A   Scattered Clouds
7:28 AM 59.0 °F - 59.0 °F 100% 30.11 in 0.5 mi ESE 1.2 mph - N/A Fog Fog
7:33 AM 59.0 °F - 59.0 °F 100% 30.11 in 0.8 mi SE 1.2 mph - N/A   Partly Cloudy
7:38 AM 59.0 °F - 59.0 °F 100% 30.11 in 2.5 mi Calm Calm - N/A   Clear
7:53 AM 59.0 °F - 59.0 °F 100% 30.12 in 8.0 mi Calm Calm - N/A   Clear
7:58 AM 59.2 °F - 59.2 °F 100% 30.13 in 10.0 mi Calm Calm - N/A   Clear
8:58 AM 62.6 °F - 62.6 °F 100% 30.13 in 10.0 mi Calm Calm - N/A   Clear
9:58 AM 71.1 °F - 62.8 °F 75% 30.14 in 10.0 mi Variable 2.3 mph - N/A   Clear
10:58 AM 75.0 °F - 64.2 °F 69% 30.14 in 10.0 mi Variable 2.3 mph - N/A   Clear
11:58 AM 79.0 °F - 64.0 °F 60% 30.14 in 10.0 mi Variable 3.5 mph - N/A   Clear
12:58 PM 81.1 °F 82.8 °F 64.6 °F 57% 30.12 in 10.0 mi South 5.8 mph - N/A   Clear
1:58 PM 82.6 °F 83.9 °F 63.7 °F 53% 30.09 in 10.0 mi ENE 3.5 mph - N/A   Mostly Cloudy
2:48 PM 84.2 °F 85.6 °F 64.4 °F 51% 30.06 in 10.0 mi Variable 5.8 mph - N/A   Mostly Cloudy
2:58 PM 83.3 °F 84.4 °F 63.5 °F 51% 30.06 in 10.0 mi NE 5.8 mph - N/A   Mostly Cloudy
3:23 PM 84.2 °F 85.0 °F 62.6 °F 48% 30.05 in 10.0 mi ENE 3.5 mph - N/A   Scattered Clouds
3:58 PM 84.0 °F 84.7 °F 62.6 °F 48% 30.05 in 10.0 mi Variable 1.2 mph - N/A   Clear
4:58 PM 83.7 °F 84.9 °F 63.5 °F 51% 30.04 in 10.0 mi SW 2.3 mph - N/A   Clear
5:58 PM 84.7 °F 85.9 °F 63.7 °F 49% 30.04 in 10.0 mi SSE 2.3 mph - N/A   Clear
6:58 PM 76.5 °F - 69.4 °F 79% 30.05 in 10.0 mi SE 2.3 mph - N/A   Clear
7:58 PM 69.1 °F - 66.4 °F 91% 30.06 in 10.0 mi SE 1.2 mph - N/A   Clear
8:58 PM 66.6 °F - 66.2 °F 99% 30.07 in 10.0 mi Calm Calm - N/A   Clear
9:23 PM 64.4 °F - 64.4 °F 100% 30.08 in 4.0 mi Calm Calm - N/A   Clear
9:33 PM 64.4 °F - 64.4 °F 100% 30.08 in 10.0 mi Calm Calm - N/A   Clear
9:43 PM 64.4 °F - 64.4 °F 100% 30.08 in 8.0 mi Calm Calm - N/A   Clear
9:53 PM 64.4 °F - 64.4 °F 100% 30.09 in 3.0 mi Calm Calm - N/A   Clear
9:58 PM 64.4 °F - 64.4 °F 100% 30.10 in 4.0 mi Calm Calm - N/A   Partly Cloudy
10:18 PM 64.4 °F - 64.4 °F 100% 30.09 in 4.0 mi Calm Calm - N/A   Mostly Cloudy
10:23 PM 64.4 °F - 64.4 °F 100% 30.09 in 1.5 mi ESE 1.2 mph - N/A   Scattered Clouds
10:28 PM 64.4 °F - 64.4 °F 100% 30.10 in 2.0 mi East 1.2 mph - N/A   Scattered Clouds
10:33 PM 64.4 °F - 62.6 °F 94% 30.10 in 7.0 mi ENE 1.2 mph - N/A   Partly Cloudy
10:43 PM 64.4 °F - 64.4 °F 100% 30.10 in 10.0 mi Calm Calm - N/A   Partly Cloudy
10:58 PM 64.2 °F - 63.9 °F 99% 30.11 in 7.0 mi Calm Calm - N/A   Clear
11:03 PM 62.6 °F - 62.6 °F 100% 30.10 in 1.0 mi Calm Calm - N/A   Clear
11:08 PM 62.6 °F - 62.6 °F 100% 30.10 in 0.5 mi Calm Calm - N/A Fog Fog
11:23 PM 62.6 °F - 62.6 °F 100% 30.11 in 0.2 mi Calm Calm - N/A Fog Fog
11:28 PM 62.6 °F - 62.6 °F 100% 30.11 in 0.5 mi Calm Calm - N/A Fog Fog
11:33 PM 62.6 °F - 62.6 °F 100% 30.11 in 0.8 mi Calm Calm - N/A   Clear
11:43 PM 62.6 °F - 62.6 °F 100% 30.11 in 0.5 mi Calm Calm - N/A Fog Fog
11:48 PM 62.6 °F - 62.6 °F 100% 30.11 in 0.8 mi Calm Calm - N/A   Clear
11:53 PM 62.6 °F - 60.8 °F 94% 30.11 in 1.0 mi Calm Calm - N/A   Clear
11:58 PM 62.6 °F - 62.6 °F 100% 30.12 in 1.0 mi Calm Calm - N/A   Clear